This is the latest recevied weather packets stored in our database for station/object KC2GYU. If no packets are shown the sender has not sent any weather packets the latest 10 day(s).
| Time | Temp. | Humidity | Pressure | Rain* | Wind** | Luminosity | Snow |
|---|---|---|---|---|---|---|---|
| 1777550207 | 11.11° C | 99% | 1008.2 hPa | 0 mm | - | 114 W/m² | - |
| 1777549903 | 11.11° C | 99% | 1008.2 hPa | 0 mm | - | 108 W/m² | - |
| 1777549600 | 10.56° C | 99% | 1008.4 hPa | 0 mm | - | 102 W/m² | - |
| 1777549295 | 10.56° C | 99% | 1008.2 hPa | 0 mm | - | 79 W/m² | - |
| 1777548993 | 10.56° C | 99% | 1008.1 hPa | 0 mm | - | 65 W/m² | - |
| 1777548689 | 10.56° C | 99% | 1008.5 hPa | 0 mm | - | 52 W/m² | - |
| 1777548387 | 10.56° C | 99% | 1008.2 hPa | 0 mm | - | 54 W/m² | - |
| 1777548084 | 10° C | 99% | 1008.4 hPa | 0 mm | - | 44 W/m² | - |
| 1777547779 | 10° C | 99% | 1008.2 hPa | 0 mm | - | 47 W/m² | - |
| 1777547476 | 10° C | 99% | 1008.2 hPa | 0 mm | - | 35 W/m² | - |
| 1777547174 | 10° C | 99% | 1008.2 hPa | 0 mm | - | 32 W/m² | - |
| 1777546871 | 10° C | 99% | 1008.2 hPa | 0 mm | - | 33 W/m² | - |
| 1777546568 | 10° C | 99% | 1008.3 hPa | 0 mm | - | 25 W/m² | - |
| 1777546264 | 10° C | 99% | 1008 hPa | 0 mm | - | 19 W/m² | - |
| 1777545961 | 10° C | 99% | 1008.1 hPa | 0 mm | - | 20 W/m² | - |
| 1777545657 | 10° C | 99% | 1007.9 hPa | 0 mm | - | 15 W/m² | - |
| 1777545355 | 10° C | 99% | 1008.2 hPa | 0 mm | - | 13 W/m² | - |
| 1777545052 | 10° C | 99% | 1007.8 hPa | 0 mm | - | 10 W/m² | - |
| 1777544748 | 9.44° C | 99% | 1007.9 hPa | 0 mm | - | 6 W/m² | - |
| 1777544444 | 9.44° C | 99% | 1007.8 hPa | 0 mm | - | 3 W/m² | - |
| 1777544140 | 9.44° C | 99% | 1007.7 hPa | 0 mm | - | 2 W/m² | - |
| 1777543838 | 9.44° C | 99% | 1007.7 hPa | 0 mm | - | 2 W/m² | - |
| 1777543534 | 9.44° C | 99% | 1008 hPa | 0 mm | - | 0 W/m² | - |
| 1777543231 | 9.44° C | 99% | 1007.4 hPa | 0 mm | - | 0 W/m² | - |
| 1777542926 | 8.89° C | 99% | 1007.6 hPa | 0 mm | - | 0 W/m² | - |
* Rain latest hour (hover to see other rain measurements)
** Current wind speed in m/s (hover to see current wind gust speed)